User: anonymous   Login
Location: Arrakis Observatory
(44.1122°N, 95.7153°W)
Time: 19:26:09
(UTC-06:00)
Language:

Iridium 35 - Orbit

View from above orbital plane
View from above orbital plane
View from above satellite
View from above satellite

Ground track
Ground track

The orbit data is extracted from the following two-line orbital elements,

1 24966U 97056B   14355.05137685  .00000627  00000-0  21678-3 0  1137
2 24966 086.3961 338.7106 0002220 105.1173 255.0269 14.34224020902220
Epoch (UTC): 21 December 2014 01:13:58
Eccentricity: 0.0002220
inclination: 86.3961°
perigee height: 776 km
apogee height: 779 km
right ascension of ascending node: 338.7106°
argument of perigee: 105.1173°
revolutions per day: 14.34224020
mean anomaly at epoch: 255.0269°
orbit number at epoch: 90222

The dashed part of the orbit path shows where the satellite is in the earth's shadow,  

DLR